Theta_e
340 345 345 342 341 341 342 342 344 347 347 349 349 348 347 346 346 346 334 329 332 334 328 326 324 318 318 316 315 314 319 324 330 337 336 332 326 327 318 317 316 312 314
342 342 347 345 343 342 341 341 343 344 346 346 348 348 347 346 343 345 336 333 330 337 337 335 322 315 316 314 314 314 314 314 321 334 334 326 324 318 318 317 312 311 313
343 343 344 347 347 345 344 343 343 344 344 346 347 348 348 345 338 341 340 338 334 339 337 329 318 314 314 314 313 314 313 315 320 327 328 323 319 318 317 313 310 311 315
344 344 344 346 347 346 346 346 346 345 344 344 345 348 347 347 338 340 340 340 338 341 337 334 318 319 318 314 315 314 314 315 316 317 318 318 318 318 314 311 312 312 312
344 345 345 345 347 347 346 346 346 347 347 346 345 348 350 346 339 343 341 341 340 341 337 333 327 324 315 313 312 313 313 314 317 317 319 319 318 314 314 314 314 315 316
345 345 345 345 346 346 347 347 346 346 347 348 347 349 349 348 344 334 342 342 341 342 336 332 322 315 313 316 312 317 313 310 311 311 313 316 314 315 316 315 315 316 316
345 345 345 345 346 345 346 347 347 346 347 347 349 350 349 348 347 337 340 340 341 342 337 333 320 316 320 320 317 319 312 312 310 312 314 316 316 316 315 315 316 317 317
346 346 345 346 346 346 346 346 347 347 347 348 351 351 351 348 344 337 341 342 338 343 336 333 324 319 321 324 321 315 310 312 314 317 318 319 318 316 315 316 318 316 315
354 352 349 346 346 346 346 347 348 349 349 350 352 352 350 348 341 332 342 342 340 343 338 334 327 321 324 324 321 311 309 312 314 315 316 316 316 315 316 317 316 316 316
358 358 357 356 353 350 349 349 350 351 352 352 355 353 349 345 337 337 339 339 340 342 338 334 327 321 322 321 312 310 311 313 316 316 315 316 316 316 317 317 318 317 316
361 361 359 358 357 357 356 355 354 354 355 355 356 353 348 344 341 340 338 339 341 341 338 336 325 324 318 312 310 312 315 316 317 317 317 317 317 318 318 318 318 318 317
355 359 359 358 357 358 357 357 355 354 356 358 358 354 345 340 339 339 340 340 342 341 338 335 324 323 313 312 311 315 317 317 317 317 317 318 318 318 318 318 318 318 317
348 351 352 355 356 355 356 357 355 355 355 355 355 352 348 339 338 340 342 340 342 339 338 329 323 320 315 314 312 315 316 317 317 318 320 319 319 319 319 318 318 318 317
336 345 353 355 355 355 354 355 355 353 353 351 350 348 344 341 338 343 341 342 337 337 332 326 324 319 315 317 316 313 315 316 318 319 319 319 319 318 317 317 318 317 317
336 344 349 349 350 351 350 350 348 347 345 345 344 346 343 339 340 340 342 338 337 334 330 327 326 320 320 320 319 318 316 318 319 319 319 320 316 314 313 314 317 317 317
333 337 341 344 344 342 343 342 342 341 343 343 342 340 341 340 339 339 338 337 333 333 328 326 322 320 320 319 319 315 318 319 319 319 318 315 312 311 312 315 317 317 316
336 338 342 342 342 342 343 343 342 341 338 337 337 337 337 339 339 339 338 336 332 329 326 323 322 319 317 313 317 318 318 319 320 318 315 312 311 312 314 316 317 317 315
336 337 337 340 338 340 341 343 344 340 338 337 335 335 337 338 337 338 336 335 332 328 323 322 321 319 316 316 318 318 319 320 318 314 312 312 312 313 315 316 316 316 315
340 339 339 337 337 338 337 337 336 340 338 337 336 335 336 336 336 336 336 335 333 323 320 322 318 319 318 317 318 318 319 318 314 313 312 311 312 315 316 316 315 315 315
339 338 334 330 331 336 337 339 338 340 340 337 336 336 336 336 336 336 336 335 329 319 319 321 319 320 318 318 320 320 318 314 313 311 310 313 315 316 315 314 314 314 313
337 338 339 338 337 339 339 339 341 339 337 336 336 335 335 336 335 335 334 328 319 317 319 320 323 319 319 321 320 319 316 313 310 313 315 314 313 313 313 313 312 312 311
339 340 339 337 338 338 335 336 338 340 338 337 336 336 336 337 335 332 330 323 320 321 319 323 320 318 321 321 320 317 311 311 315 315 314 313 313 314 314 313 312 312 310
338 339 339 340 338 335 332 334 336 339 340 336 336 338 335 336 337 329 327 327 322 320 320 317 318 320 321 319 317 311 313 314 312 311 310 312 313 312 311 311 309 308 310
338 339 339 339 331 329 329 328 335 338 337 337 338 339 339 336 335 334 330 329 324 317 318 317 319 320 319 317 312 314 312 310 309 309 309 310 310 310 309 308 309 310 310
338 339 336 331 330 329 329 327 331 336 336 337 337 337 339 336 334 333 330 324 317 322 316 315 318 318 316 312 314 312 311 310 309 307 308 309 309 308 308 309 309 309 308
339 335 334 335 330 330 330 328 330 334 334 336 336 338 337 333 332 332 326 320 321 317 314 317 318 317 312 313 313 311 309 306 305 306 306 307 307 308 309 309 309 309 308
Wind_Speed
34 28 26 26 26 25 24 23 21 19 18 17 17 16 15 14 13 12 9 5 5 5 5 6 8 6 6 4 4 4 7 9 10 11 12 10 7 10 8 9 12 10 8
35 35 30 27 27 27 27 26 26 25 23 21 21 19 19 16 15 15 13 7 6 6 6 9 8 5 5 4 2 2 2 3 7 8 11 10 9 6 7 10 12 10 8
35 37 36 33 31 29 28 28 28 28 29 29 25 22 21 17 12 8 11 11 8 9 7 7 5 5 3 3 2 1 1 1 1 4 8 9 7 5 7 9 9 9 7
31 35 39 38 35 31 30 30 30 29 31 32 31 27 23 20 16 9 11 12 12 11 8 7 5 4 5 5 4 2 2 1 2 3 4 4 4 4 7 6 7 7 6
31 30 32 34 36 37 35 33 31 32 32 33 32 30 28 27 21 20 14 14 15 13 9 10 10 10 9 6 4 4 4 4 4 5 6 5 4 4 4 5 5 5 6
32 33 30 32 33 36 37 37 35 33 35 34 32 30 30 33 18 14 25 18 18 13 10 10 10 9 9 6 4 4 6 5 5 5 5 5 3 2 4 5 6 9 11
34 34 34 34 33 33 35 36 36 34 35 35 32 31 33 37 28 12 21 17 20 16 13 12 11 10 9 6 5 4 5 3 0 4 4 4 3 5 7 6 8 12 15
30 33 35 35 34 33 33 33 34 34 36 36 33 30 32 31 5 18 22 19 21 19 15 12 10 11 9 6 6 5 4 3 4 4 3 4 5 7 8 8 9 13 14
15 18 22 27 31 32 31 30 30 32 35 35 33 31 31 15 10 7 26 19 22 21 17 14 11 12 10 8 6 4 4 4 4 3 5 7 9 8 7 9 11 14 16
8 13 15 15 16 18 18 20 23 28 31 33 31 29 18 9 15 10 18 22 24 22 20 15 13 12 10 9 6 6 6 5 3 1 2 2 2 5 9 13 16 17 17
10 7 4 2 6 10 14 17 22 25 27 26 24 21 14 16 18 15 17 26 26 23 23 17 15 14 11 9 8 7 7 7 4 3 5 8 10 13 15 17 18 18 17
7 8 9 9 10 11 13 17 21 21 19 15 15 9 12 19 19 13 23 24 23 23 21 15 15 12 11 10 10 10 9 7 6 9 12 14 16 17 18 20 19 18 17
6 6 9 9 6 5 6 5 9 10 12 12 16 16 17 20 16 14 23 23 21 19 16 14 13 12 13 11 11 12 11 9 10 13 15 13 15 18 21 21 19 17 16
7 3 4 5 4 2 2 4 6 9 11 11 13 13 16 19 15 21 23 24 21 20 18 16 14 14 16 14 12 13 13 12 12 15 15 17 20 21 21 20 17 15 17
3 3 2 3 3 1 2 3 3 4 4 5 8 12 15 18 19 22 27 27 23 22 21 18 16 16 16 16 17 15 14 12 14 16 19 21 20 20 19 17 15 16 18
3 3 5 7 6 5 4 5 3 2 5 8 11 12 13 13 16 22 24 21 20 22 21 17 13 15 15 14 14 15 15 14 16 17 17 18 19 16 15 14 15 16 18
3 2 3 4 3 1 2 1 1 3 3 4 5 8 13 13 17 20 21 22 20 20 18 14 14 14 13 12 12 12 14 15 15 17 17 17 16 14 12 14 15 17 17
5 6 5 3 2 5 6 5 4 5 4 4 5 7 9 16 17 19 22 23 22 21 18 14 14 13 11 11 11 11 12 11 16 16 17 17 17 15 14 15 16 17 16
8 8 7 10 8 6 7 9 8 8 8 7 7 10 11 16 20 20 21 23 23 22 18 13 12 12 11 11 11 11 11 16 16 17 17 18 17 15 15 15 16 13 9
11 9 10 8 10 10 9 9 10 9 11 11 12 13 13 16 21 22 24 24 22 19 14 12 12 12 11 10 10 11 14 15 17 18 18 15 14 15 13 6 5 6 8
14 14 14 11 13 14 14 13 10 6 5 7 12 12 12 13 14 20 23 22 20 17 14 13 14 13 9 8 9 12 14 17 16 15 12 11 9 4 2 3 6 9 10
11 15 14 14 15 16 15 13 12 10 6 5 10 10 15 16 13 14 18 18 17 16 16 15 14 12 10 9 10 12 14 14 10 8 7 5 2 2 3 6 9 11 12
11 12 13 14 16 16 13 12 12 12 12 11 11 13 12 15 18 20 20 20 23 15 14 13 13 10 9 9 10 13 10 5 4 3 3 2 0 2 5 8 10 10 11
11 11 13 15 14 13 12 12 13 12 12 15 11 12 18 17 19 23 23 25 20 18 16 14 10 8 9 9 11 5 2 1 2 2 3 4 4 5 6 6 7 10 14
11 13 14 12 13 14 13 12 13 13 13 13 13 12 14 13 16 18 22 23 21 18 18 15 11 10 8 8 3 2 1 1 2 4 4 4 3 2 3 5 10 13 20
12 12 12 14 14 14 13 11 9 10 9 12 14 13 13 16 16 18 27 22 22 19 17 14 12 9 6 3 4 2 1 2 4 4 6 7 5 3 5 8 11 15 10
Wind_Direction
234 235 238 236 233 234 236 236 239 241 243 242 251 261 264 260 270 246 239 243 269 278 271 281 276 271 272 269 279 255 245 250 249 242 232 230 248 283 307 330 338 341 335
239 234 237 238 238 240 243 244 243 246 247 247 246 258 264 264 284 252 253 248 250 256 272 294 279 269 274 297 326 345 308 260 247 238 217 210 240 272 307 329 336 343 332
244 241 239 241 242 241 243 246 249 249 251 251 250 249 261 262 273 276 253 264 251 252 261 271 265 273 290 309 304 290 355 335 285 199 207 221 242 267 317 332 344 344 339
245 244 243 241 243 247 247 248 249 252 254 255 252 248 251 255 259 283 281 265 258 257 263 258 243 236 268 264 250 284 345 331 269 270 249 229 240 293 317 326 338 351 346
248 247 246 247 246 248 251 252 252 254 258 258 256 248 245 242 247 294 292 285 254 247 237 243 245 250 250 239 250 290 302 281 257 251 254 253 254 285 321 333 351 2 10
251 254 257 255 253 252 252 253 253 252 256 260 257 248 242 238 235 288 282 272 249 238 248 241 238 228 225 222 225 292 307 306 276 239 227 233 223 275 337 345 342 335 333
261 263 262 260 259 259 259 257 256 254 253 255 255 248 242 232 230 281 272 260 241 224 235 235 233 218 211 218 223 277 297 313 109 142 145 170 229 297 322 325 325 325 321
263 265 266 266 265 263 262 262 260 257 255 252 251 250 246 237 196 274 288 272 231 218 231 232 232 224 216 228 231 272 278 233 208 205 258 276 280 300 308 313 319 325 329
263 266 266 266 265 266 266 266 264 259 256 252 248 249 252 207 175 313 273 260 218 214 222 227 228 220 221 228 237 251 220 209 213 248 281 287 284 285 292 308 306 322 321
302 274 266 264 263 264 266 263 260 256 252 253 252 256 269 160 206 245 246 233 215 210 212 221 224 206 223 221 219 202 183 180 195 252 312 354 352 297 301 307 304 307 317
26 22 2 282 250 250 252 251 251 253 248 247 251 266 226 205 236 252 215 202 204 211 218 223 215 206 209 204 195 182 175 190 207 261 282 288 287 289 298 302 302 300 307
346 337 328 312 295 279 273 264 257 258 258 257 259 253 186 200 228 229 211 193 205 207 220 225 212 212 198 195 190 185 196 219 253 279 288 290 288 289 290 292 295 298 300
307 288 291 297 295 284 293 300 284 283 276 265 253 241 226 230 239 198 194 202 203 207 221 216 205 205 195 192 194 205 222 246 274 289 295 300 301 295 290 291 290 290 295
348 353 270 309 249 233 284 275 263 261 252 246 231 230 231 246 232 196 199 205 195 208 201 198 203 204 208 211 214 223 236 255 281 295 295 298 300 300 297 294 284 277 290
20 71 93 112 106 153 197 209 260 275 255 251 243 246 251 251 217 208 201 199 201 198 199 204 212 215 219 227 232 239 243 265 282 300 301 298 302 301 299 296 281 279 289
353 111 107 109 112 105 97 81 61 356 265 253 251 243 230 232 217 207 202 202 202 202 203 209 220 224 229 234 235 237 244 267 283 297 296 299 303 302 293 285 276 284 292
313 205 161 109 83 76 66 68 321 345 313 261 260 239 209 197 199 207 206 198 203 201 204 214 224 226 239 230 223 239 251 271 287 289 294 303 304 303 286 278 274 282 291
253 246 259 250 314 286 288 281 294 324 334 281 253 235 199 187 188 195 197 200 200 200 207 221 225 231 232 221 231 248 279 289 283 289 297 301 303 297 286 278 280 287 292
239 238 257 272 280 286 282 282 283 275 282 267 249 238 227 203 192 191 199 208 207 205 209 222 222 221 227 231 250 269 282 280 290 295 299 301 298 293 286 283 288 291 281
254 250 262 271 276 289 288 275 264 264 256 263 248 238 230 215 203 202 198 202 206 211 218 231 214 215 224 254 269 275 277 291 298 301 303 298 293 291 297 293 290 291 295
266 257 257 269 282 295 291 283 272 264 314 244 246 246 232 223 214 218 210 205 202 203 215 218 206 214 233 242 263 276 289 299 303 303 301 300 297 274 201 303 298 298 296
269 263 264 263 276 285 287 284 271 250 253 243 244 238 224 214 216 207 193 189 188 187 189 213 207 217 224 251 275 292 304 308 305 308 306 301 252 217 255 282 300 298 298
265 256 257 268 284 288 289 280 272 256 243 242 244 226 224 224 219 196 190 182 185 189 189 200 202 209 237 264 290 307 306 298 308 341 357 0 264 301 313 314 314 313 310
265 262 269 281 283 288 289 283 268 262 243 235 244 242 229 229 225 213 197 201 191 174 195 197 194 224 248 274 303 296 267 340 19 10 14 9 347 329 319 322 328 329 323
263 267 273 276 289 292 298 290 265 262 246 240 238 241 241 218 204 188 191 172 174 192 196 200 209 228 248 294 286 193 117 17 353 350 337 327 317 317 352 354 344 347 350
262 268 267 282 285 287 294 298 282 257 253 240 236 238 226 195 197 203 178 174 189 190 194 201 206 221 270 240 174 161 128 21 24 59 68 55 40 32 350 337 334 337 348